Location: Crni Vrh Observatory
(45.9460°N, 14.0712°E)
Time: 13:18:36
(UTC+02:00)

BlueWalker 3 - Visible Passes

Search period start: 08 May 2026 00:00
Search period end: 18 May 2026 00:00
Orbit: 448 x 458 km, 53.2° (Epoch: 7 May)

Date Brightness Start Highest point End Pass type
(mag) Time Alt. Az. Time Alt. Az. Time Alt. Az.
8 May 4.1 02:44:01 15° ESE 02:44:01 15° ESE 02:45:16 10° E visible
8 May 1.7 04:17:39 21° WSW 04:19:51 76° NNW 04:23:24 10° ENE visible
9 May 1.6 03:42:05 44° SW 03:43:06 85° SSE 03:46:40 10° ENE visible
10 May 1.7 03:06:29 65° SE 03:06:29 65° SE 03:09:54 10° ENE visible
10 May 3.1 04:40:44 10° W 04:43:58 33° NNW 04:47:13 10° NE visible
11 May 3.0 02:30:49 33° E 02:30:49 33° E 02:33:05 10° ENE visible
11 May 2.9 04:04:26 14° W 04:07:08 37° NNW 04:10:28 10° NE visible
12 May 4.0 01:55:06 18° E 01:55:06 18° E 01:56:14 10° ENE visible
12 May 2.6 03:28:43 26° WNW 03:30:18 43° NNW 03:33:43 10° NE visible
13 May 2.3 02:52:57 47° WNW 02:53:28 52° NNW 02:56:57 10° NE visible
13 May 3.8 04:28:25 10° WNW 04:31:25 25° N 04:34:25 10° NE visible
14 May 2.3 02:17:08 55° NNE 02:17:08 55° NNE 02:20:11 10° NE visible
14 May 3.7 03:51:29 10° WNW 03:54:31 26° N 03:57:34 10° NE visible
15 May 3.2 01:41:16 34° NE 01:41:16 34° NE 01:43:24 10° ENE visible
15 May 3.6 03:14:52 12° WNW 03:17:37 28° N 03:20:44 10° NE visible
15 May 3.8 04:52:39 10° NW 04:55:44 27° N 04:58:50 10° ENE visible
16 May 3.9 01:05:19 21° ENE 01:05:19 21° ENE 01:06:35 10° ENE visible
16 May 3.5 02:38:55 19° WNW 02:40:43 30° NNW 02:43:54 10° NE visible
16 May 3.9 04:15:48 10° NW 04:18:49 25° N 04:21:51 10° ENE visible
17 May 4.3 00:29:17 13° ENE 00:29:17 13° ENE 00:29:45 10° ENE visible
17 May 3.3 02:02:52 28° NW 02:03:48 33° NNW 02:07:05 10° NE visible
17 May 4.0 03:38:55 10° NW 03:41:55 25° N 03:44:53 10° ENE visible
